Location: Castrojimeno
(41.3966°N, 3.8473°W)
Time: 12:30:41
(UTC+00:00)

Cosmos 2333 Rocket - Pass Details

Date: 15 May 2026
Orbit: 840 x 862 km, 70.8° (Epoch: 7 June)

Event Time Altitude Azimuth Distance (km) Brightness Sun altitude
Rises 21:36:08 0° 335° (NNW) 3,422 6.8 -19.6°
Reaches altitude 10° 21:38:36 10° 335° (NNW) 2,486 5.8 -19.9°
Maximum altitude 21:44:19 86° 247° (WSW) 862 2.2 -20.6°
Enters shadow 21:46:30 40° 161° (SSE) 1,240 2.6 -20.8°
